Weather History for Akron Canton, OH

Change the Weather History Date:

Wednesday, March 6, 2013

  Actual Average Record
Temperature  
Mean Temperature 36 °F 34 °F  
Max Temperature 43 °F 42 °F 72 °F (1973)
Min Temperature 28 °F 25 °F -2 °F (1901)
Degree Days  
Heating Degree Days 29 31  
Month to date heating degree days 218 191  
Since 1 July heating degree days 4479 4735  
Cooling Degree Days 0 0  
Month to date cooling degree days 0 0  
Year to date cooling degree days 0 0  
Moisture  
Dew Point 28 °F    
Average Humidity 72    
Maximum Humidity 92    
Minimum Humidity 52    
Precipitation  
Precipitation 0.14 in 0.08 in 0.92 in (1991)
Month to date precipitation 0.26 0.51  
Year to date precipitation 4.45 5.43  
Snow  
Snow 1.40 in 0.30 in - ()
Month to date snowfall 3.4 2.0  
Since 1 July snowfall 39.8 38.5  
Snow Depth 1.00 in    
Sea Level Pressure  
Sea Level Pressure 29.91 in    
Wind  
Wind Speed 10 mph (NE)    
Max Wind Speed 22 mph    
Max Gust Speed 26 mph    
Visibility 6 miles    
Events Fog , Snow    
T = Trace of Precipitation, MM = Missing Value Source: NWS Daily Summary

Daily Weather History Graph

Daily Weather History Graph

Search for Another Location

Airport:

Trip Planner

Search our weather history database for the weather conditions in past years. The results will help you decide how hot, cold, wet, or windy it might be!

Date:

Astronomy

Mar. 06, 2013 Rise Set
Actual Time 6:51 AM EST 6:22 PM EST
Civil Twilight 6:24 AM EST 6:50 PM EST
Nautical Twilight 5:52 AM EST 7:22 PM EST
Astronomical Twilight 5:20 AM EST 7:54 PM EST
Moon 3:01 AM EST (3/6) 1:01 PM EST (3/6)
Length of Visible Light 12h 26m
Length of Day
11h 31m
Waning Crescent, 30% of the Moon is Illuminated
Mar 6
Waning Crescent
Mar 11
New
Mar 19
First Quarter
Mar 27
Full
Apr 3
Last Quarter

Hourly Weather History & Observations

Time (EST) Temp. Windchill Dew Point Humidity Pressure Visibility Wind Dir Wind Speed Gust Speed Precip Events Conditions
12:51 AM 36.0 °F 26.0 °F 24.1 °F 62% 29.65 in 6.0 mi East 17.3 mph 23.0 mph 0.00 in Snow Light Snow
1:06 AM 35.6 °F 24.5 °F 26.6 °F 70% 29.63 in 1.8 mi East 20.7 mph 26.5 mph 0.00 in Snow Light Snow
1:25 AM 33.8 °F 24.3 °F 28.4 °F 81% 29.64 in 0.8 mi East 13.8 mph - 0.01 in Snow Light Snow
1:49 AM 32.0 °F 21.6 °F 28.4 °F 87% 29.65 in 0.5 mi East 15.0 mph 20.7 mph 0.04 in Fog , Snow Snow
1:51 AM 32.0 °F 21.2 °F 28.9 °F 88% 29.68 in 0.5 mi East 16.1 mph 21.9 mph 0.04 in Fog , Snow Snow
2:51 AM 32.0 °F 20.8 °F 30.0 °F 92% 29.68 in 0.5 mi ENE 17.3 mph - 0.06 in Fog , Snow Snow
3:51 AM 32.0 °F 22.1 °F 30.0 °F 92% 29.70 in 1.0 mi ENE 13.8 mph 23.0 mph 0.03 in Snow Light Snow
4:28 AM 32.0 °F 21.6 °F 30.2 °F 93% 29.69 in 2.0 mi East 15.0 mph 21.9 mph 0.01 in Snow Light Snow
4:51 AM 33.1 °F 23.4 °F 28.9 °F 85% 29.74 in 3.0 mi ENE 13.8 mph - 0.01 in Snow Light Snow
5:51 AM 33.1 °F 23.0 °F 30.0 °F 89% 29.78 in 5.0 mi East 15.0 mph - 0.00 in Snow Light Snow
6:15 AM 33.8 °F 24.3 °F 28.4 °F 81% 29.77 in 5.0 mi East 13.8 mph - 0.00 in Snow Light Snow
6:51 AM 34.0 °F 25.5 °F 30.0 °F 85% 29.83 in 5.0 mi East 11.5 mph - 0.00 in   Overcast
7:51 AM 34.0 °F 25.5 °F 30.0 °F 85% 29.87 in 4.0 mi East 11.5 mph - N/A   Overcast
8:10 AM 33.8 °F 26.4 °F 30.2 °F 87% 29.86 in 4.0 mi East 9.2 mph - N/A   Overcast
8:51 AM 34.0 °F 25.0 °F 30.0 °F 85% 29.92 in 4.0 mi ENE 12.7 mph - N/A   Overcast
9:51 AM 35.1 °F 26.4 °F 28.9 °F 78% 29.95 in 5.0 mi East 12.7 mph - N/A   Haze
10:33 AM 37.4 °F 28.9 °F 28.4 °F 70% 29.94 in 7.0 mi ENE 13.8 mph - N/A   Mostly Cloudy
10:51 AM 37.9 °F 30.9 °F 28.9 °F 70% 29.98 in 7.0 mi ENE 10.4 mph - N/A   Mostly Cloudy
11:51 AM 39.9 °F 34.5 °F 28.9 °F 65% 30.01 in 9.0 mi East 8.1 mph - N/A   Mostly Cloudy
12:29 PM 41.0 °F 37.1 °F 28.4 °F 61% 29.99 in 10.0 mi Variable 5.8 mph - N/A   Mostly Cloudy
12:51 PM 43.0 °F - 28.9 °F 58% 30.01 in 10.0 mi Calm Calm - N/A   Mostly Cloudy
1:17 PM 41.0 °F 37.1 °F 28.4 °F 61% 29.99 in 10.0 mi ENE 5.8 mph - N/A   Mostly Cloudy
1:51 PM 42.1 °F 37.1 °F 28.0 °F 58% 30.02 in 10.0 mi North 8.1 mph - N/A   Overcast
2:51 PM 42.1 °F 36.6 °F 28.0 °F 58% 30.03 in 10.0 mi NNW 9.2 mph - N/A   Overcast
3:51 PM 43.0 °F 40.3 °F 28.0 °F 56% 30.05 in 10.0 mi North 4.6 mph - N/A   Mostly Cloudy
4:51 PM 42.1 °F 36.1 °F 28.0 °F 58% 30.06 in 10.0 mi NW 10.4 mph - N/A   Overcast
5:51 PM 39.9 °F 34.5 °F 28.0 °F 63% 30.08 in 10.0 mi NNW 8.1 mph - N/A   Overcast
6:51 PM 39.0 °F 35.7 °F 28.0 °F 65% 30.11 in 10.0 mi North 4.6 mph - N/A   Overcast
7:51 PM 37.9 °F 32.1 °F 27.0 °F 65% 30.13 in 10.0 mi NNE 8.1 mph - N/A   Overcast
8:51 PM 35.1 °F 26.9 °F 27.0 °F 72% 30.15 in 10.0 mi North 11.5 mph - N/A   Mostly Cloudy
9:51 PM 30.9 °F 25.2 °F 25.0 °F 79% 30.16 in 10.0 mi NNE 5.8 mph - N/A   Partly Cloudy
10:51 PM 28.0 °F 21.7 °F 24.1 °F 85% 30.17 in 10.0 mi NNW 5.8 mph - N/A   Partly Cloudy
11:51 PM 32.0 °F 25.6 °F 28.0 °F 85% 30.17 in 7.0 mi NW 6.9 mph - N/A   Overcast